Regional Weather Roundup
Issued by NWS Wilmington, NC

Home | Current Version | Previous Version | Text Only | Print | Product List | Glossary On
Versions: 1 2 3 4 5 6 7 8 9 10 11 12 13 14 15 16 17 18 19 20 21 22 23 24 25 26 27 28 29 30 31 32 33 34 35 36 37 38 39 40 41 42 43 44 45 46 47 48 49 50
000
ASUS42 KILM 311110
RWRILM
RWRILM
REGIONAL HOURLY WEATHER ROUNDUP
NATIONAL WEATHER SERVICE WILMINGTON NC
700 AM EDT THU JUL 31 2014

NOTE: "FAIR" INDICATES FEW OR NO CLOUDS BELOW 12,000 FEET WITH NO
SIGNIFICANT WEATHER AND/OR OBSTRUCTIONS TO VISIBILITY.

...............WFO WILMINGTON COUNTY WARNING AREA...............

......COASTAL NC AND SC COUNTIES......

CITY           SKY/WX    TMP DP  RH WIND       PRES   REMARKS
WILMINGTON     CLOUDY    71  68  90 NE3       30.07R
SOUTHPORT      CLOUDY    73  68  83 NE3       30.06S
N MYRTLE BEACH CLOUDY    71  67  87 N7        30.06R
MYRTLE BEACH   MOCLDY    73  66  78 N8        30.05R

......INLAND NC AND SC COUNTIES.......

CITY           SKY/WX    TMP DP  RH WIND       PRES   REMARKS
LUMBERTON      MOCLDY    71  67  87 E5        30.08R
ELIZABETHTOWN  MOCLDY    68  67  97 CALM      30.08S
WHITEVILLE     CLOUDY    69  66  93 CALM      30.08R
FLORENCE       CLOUDY    70  66  87 E6        30.07R
DARLINGTON     CLOUDY    72  64  78 NE3       30.09R

....................REST OF NORTH CAROLINA......................

.........EASTERN NC.........

CITY           SKY/WX    TMP DP  RH WIND       PRES   REMARKS
CAPE HATTERAS  CLEAR     74  65  73 NE6       30.10R
JACKSONVILLE   MOCLDY    66  63  88 CALM      30.09S
MOREHEAD CITY  PTCLDY    71  68  90 NE5       30.09R
KENANSVILLE    CLOUDY    68  66  92 CALM      30.11R
NEW BERN       PTCLDY    71  67  87 CALM      30.11R
ELIZABETH CITY PTCLDY    65  63  93 CALM      30.12R

.........CENTRAL NC.........

CITY           SKY/WX    TMP DP  RH WIND       PRES   REMARKS
RALEIGH DURHAM MOCLDY    67  64  90 CALM      30.11R
ROCKY MOUNT    CLOUDY    67  64  90 NE3       30.11R
ROANOKE RAPIDS NOT AVBL
FAYETTEVILLE   CLOUDY    70  67  90 NE3       30.08S
HOFFMAN        MOCLDY    69  67  94 N1        30.11R

.........WESTERN NC.........

CITY           SKY/WX    TMP DP  RH WIND       PRES   REMARKS
CHARLOTTE      CLOUDY    71  63  75 E5        30.11R
GREENSBORO     MOCLDY    64  61  90 CALM      30.12R
HICKORY        NOT AVBL
BOONE          NOT AVBL
ASHEVILLE      NOT AVBL

.....................REST OF SOUTH CAROLINA.....................

.........EASTERN SC.........

CITY           SKY/WX    TMP DP  RH WIND       PRES   REMARKS
CHARLESTON     CLOUDY    77  71  82 NE6       30.02R
BEAUFORT MCAS  MOCLDY    76  73  91 NE7       30.00R
HILTON HEAD    NOT AVBL

.........CENTRAL SC.........

CITY           SKY/WX    TMP DP  RH WIND       PRES   REMARKS
COLUMBIA       CLOUDY    75  67  76 E6        30.05R
ORANGEBURG     MOCLDY    72  67  84 NE8       30.04R
SUMTER SHAW    CLOUDY    69  68  96 NE7       30.05R

.........WESTERN SC.........

CITY           SKY/WX    TMP DP  RH WIND       PRES   REMARKS
GREENVILLE     NOT AVBL
ROCK HILL      CLOUDY    69  65  86 CALM      30.11R
ANDERSON       LGT RAIN  67  66  97 NE5       30.08R
CLEMSON        NOT AVBL
GREENWOOD      CLOUDY    70  66  87 CALM      30.08R


...................COASTAL AND OFFSHORE REPORTS..................

................LOCAL PIERS AND NC RESERVE................


STATION/POSITION TIME  SKY/WX   TEMP    WIND        PRES    VSBY
                                AIR SEA DIR/SP/G
                 (UTC)          (F)     (DEG/KT/KT) (MB)    (MI)
JOHNY MRCER PIER 1100            80 83   80/ 12/ 15 1017.7R
NC RESRV MASNBRO 1000            78      80/  3     1017.0S
OCEAN CREST PIER 1100            73 84   40/  6/  7 1016.8R
SPRINGMAID  PIER 1100            80 83   70/ 11/ 12 1017.4S


................COASTAL AND OFFSHORE BUOYS................


STATION/POSITION TIME  SKY/WX   TEMP    WIND        PRES    VSBY
                                AIR SEA DIR/SP/G
                 (UTC)          (F)     (DEG/KT/KT) (MB)    (MI)
DIMNDSHOAL 41025 1100                   VRB  8/ 10  1018.9R
WVE H/P(F/S)=  3/ 7 WND WVE H/P(F/S)=  2/ 4 SWL H/P/D(F/S/D)=  3/130/ 7

CAPE LOOKOUT     1100            79      80/ 11/ 12 1018.7R
ONSLOW BAY 41036 1100            80 81   80/ 12/ 14 1018.5R
WVE H/P(F/S)=  3/ 6 WND WVE H/P(F/S)=  2/ 5 SWL H/P/D(F/S/D)=  3/110/ 6

5 WRITEBCH 41038 1000            77 81   90/ 10/ 14   N/A
MASONBORO  41110 1100               81                N/A
WVE H/P(F/S)=  3/ 7 WND WVE H/P(F/S)=  3/ 7

WILM HARBR 41108 NOT AVBL
27WRITEBCH 41037 1000            77 81   90/ 12/ 16 1017.5R
FRYING PAN 41013 NOT AVBL
SUNST NRSH 41024 1000            78      70/ 10/ 12 1017.2R
CAPRS NRSH 41029 1000            81      90/ 12/ 14   N/A
EDISTO     41004 1100            81 83   70/ 14/ 16 1015.6R
WVE H/P(F/S)=  3/ 6 WND WVE H/P(F/S)=  3/ 6 SWL H/P/D(F/S/D)=  2/ 7



..........OFFSHORE BUOYS BEYOND 100 NM OFFSHORE...........
.....IN A TRIANGLE---HAT TO BERMUDA TO BAHAMAS TO HAT.....


STATION/POSITION TIME  SKY/WX   TEMP    WIND        PRES    VSBY
                                AIR SEA DIR/SP/G
                 (UTC)          (F)     (DEG/KT/KT) (MB)    (MI)
150E HAT   41001 NOT AVBL
W BERMUDA  41048 1031            82 82  170/ 16/ 17 1019.7R
WVE H/P(F/S)=  5/ 6 WND WVE H/P(F/S)=  5/ 6 SWL H/P/D(F/S/D)=  2/ 30/14

ATLANTIC S 41049 1045            82 83  100/ 12/ 14 1020.7R
WVE H/P(F/S)=  4/ 5 WND WVE H/P(F/S)=  2/ 5 SWL H/P/D(F/S/D)=  3/110/ 6

E BAHAMAS  41046 0954            81 84   90/ 14/ 16 1016.7R
WVE H/P(F/S)=  5/ 7 WND WVE H/P(F/S)=  3/ 5 SWL H/P/D(F/S/D)=  2/110/ 7

NE BAHAMAS 41047 1042            83 84  140/ 14/ 16 1018.3R
WVE H/P(F/S)=  4/ 6 WND WVE H/P(F/S)=  3/ 5 SWL H/P/D(F/S/D)=  3/150/ 6

120E CANVRL41010 1100            82 84  210/  8/ 10 1015.5R
WVE H/P(F/S)=  2/ 8 WND WVE H/P(F/S)=  2/ 4 SWL H/P/D(F/S/D)=  2/110/ 8


END



USA.gov is the U.S. government's official web portal to all federal, state and local government web resources and services.